Location: Congrier
(47.8099°N, 1.1170°W)
Time: 13:30:33
(UTC+00:00)

NOSS 3-3 (C) - Visible Passes

Search period start: 26 September 2023 00:00
Search period end: 06 October 2023 00:00
Orbit: 753 x 1459 km, 63.4° (Epoch: 08 September)

Date Brightness Start Highest point End Pass type
(mag) Time Alt. Az. Time Alt. Az. Time Alt. Az.
27 Sep 7.9 18:22:32 10° W 18:24:09 11° WSW 18:25:49 10° WSW visible
02 Oct 6.3 05:17:03 10° SSE 05:21:04 21° ESE 05:25:28 10° ENE visible
03 Oct 6.7 04:34:42 10° SE 04:36:46 12° ESE 04:38:54 10° E visible
04 Oct 5.0 05:36:19 10° S 05:41:29 46° ESE 05:47:26 10° NE visible
05 Oct 5.8 04:52:22 10° S 04:56:57 28° ESE 05:02:06 10° NE visible
